Weather History for KTEB - January, 2013

Change the Weather History Date:

Tuesday, January 1, 2013

  Actual Average Record
Temperature  
Mean Temperature 33 °F -  
Max Temperature 39 °F 39 °F 61 °F (2005)
Min Temperature 26 °F 26 °F 10 °F (1997)
Degree Days  
Heating Degree Days 32    
Moisture  
Dew Point 23 °F    
Average Humidity 60    
Maximum Humidity 70    
Minimum Humidity 47    
Precipitation  
Precipitation 0.00 in - - ()
Sea Level Pressure  
Sea Level Pressure 29.90 in    
Wind  
Wind Speed 9 mph (WNW)    
Max Wind Speed 12 mph    
Max Gust Speed 23 mph    
Visibility 10 miles    
Events Rain    
Averages and records for this station are not official NWS values.
T = Trace of Precipitation, MM = Missing Value Source: NWS Daily Summary

Daily Weather History Graph

Daily Weather History Graph

Search for Another Location

Airport or City:

Trip Planner

Search our weather history database for the weather conditions in past years. The results will help you decide how hot, cold, wet, or windy it might be!

Date:

Astronomy

Jan. 01, 2013 Rise Set
Actual Time 7:20 AM EST 4:39 PM EST
Civil Twilight 6:49 AM EST 5:10 PM EST
Nautical Twilight 6:15 AM EST 5:44 PM EST
Astronomical Twilight 5:42 AM EST 6:17 PM EST
Moon 9:09 PM EST (1/1) 9:29 AM EST (1/1)
Length of Visible Light 10h 20m
Length of Day
9h 18m
Waning Gibbous, 83% of the Moon is Illuminated
Jan 1
Waning Gibbous
Jan 4
Last Quarter
Jan 11
New
Jan 18
First Quarter
Jan 26
Full

Hourly Weather History & Observations

Time (EST) Temp. Windchill Dew Point Humidity Pressure Visibility Wind Dir Wind Speed Gust Speed Precip Events Conditions
12:51 AM 37.9 °F 30.9 °F 25.0 °F 60% 29.88 in 10.0 mi WSW 10.4 mph - N/A   Overcast
1:51 AM 37.9 °F 32.1 °F 27.0 °F 65% 29.88 in 10.0 mi WSW 8.1 mph - N/A   Overcast
2:51 AM 37.9 °F 30.9 °F 28.0 °F 68% 29.87 in 10.0 mi WSW 10.4 mph - N/A   Overcast
3:51 AM 37.9 °F 30.9 °F 28.9 °F 70% 29.88 in 10.0 mi SW 10.4 mph - N/A   Overcast
4:51 AM 37.9 °F 31.5 °F 28.9 °F 70% 29.88 in 10.0 mi SW 9.2 mph - N/A   Overcast
5:51 AM 39.0 °F 32.8 °F 28.0 °F 65% 29.87 in 10.0 mi WSW 9.2 mph - N/A   Overcast
6:51 AM 39.0 °F 32.8 °F 27.0 °F 62% 29.88 in 10.0 mi WSW 9.2 mph - N/A   Overcast
7:51 AM 37.9 °F 31.5 °F 28.0 °F 68% 29.88 in 10.0 mi SW 9.2 mph - N/A   Overcast
8:51 AM 39.0 °F 32.8 °F 28.9 °F 67% 29.88 in 10.0 mi West 9.2 mph - N/A   Overcast
9:51 AM 39.0 °F 33.4 °F 28.9 °F 67% 29.90 in 10.0 mi West 8.1 mph - N/A   Overcast
10:51 AM 39.0 °F 34.0 °F 28.0 °F 65% 29.88 in 10.0 mi West 6.9 mph 18.4 mph N/A   Overcast
11:51 AM 37.9 °F 30.9 °F 28.9 °F 70% 29.87 in 10.0 mi NNW 10.4 mph - 0.00 in Rain Light Rain
12:51 PM 37.0 °F 31.0 °F 27.0 °F 67% 29.87 in 10.0 mi NW 8.1 mph - 0.00 in   Overcast
1:51 PM 37.0 °F 33.3 °F 27.0 °F 67% 29.84 in 10.0 mi WNW 4.6 mph - N/A   Overcast
2:51 PM 37.9 °F 30.5 °F 24.1 °F 57% 29.84 in 10.0 mi WNW 11.5 mph - N/A   Overcast
3:51 PM 37.9 °F 30.5 °F 21.0 °F 51% 29.88 in 10.0 mi NW 11.5 mph - N/A   Overcast
4:51 PM 36.0 °F 28.0 °F 19.0 °F 50% 29.88 in 10.0 mi WNW 11.5 mph - N/A   Partly Cloudy
5:51 PM 34.0 °F 27.2 °F 17.1 °F 50% 29.92 in 10.0 mi NNW 8.1 mph - N/A   Clear
6:51 PM 33.1 °F 24.9 °F 15.1 °F 48% 29.95 in 10.0 mi NNW 10.4 mph - N/A   Clear
7:51 PM 32.0 °F 25.6 °F 15.1 °F 50% 29.95 in 10.0 mi NNW 6.9 mph 16.1 mph N/A   Clear
8:51 PM 30.0 °F 20.5 °F 12.0 °F 47% 29.98 in 10.0 mi NNW 11.5 mph 17.3 mph N/A   Clear
9:51 PM 28.9 °F 21.1 °F 12.9 °F 51% 30.00 in 10.0 mi NNW 8.1 mph - N/A   Clear
10:51 PM 27.0 °F 18.0 °F 10.0 °F 49% 30.01 in 10.0 mi NW 9.2 mph 23.0 mph N/A   Clear
11:51 PM 26.1 °F 16.2 °F 9.0 °F 49% 30.01 in 10.0 mi NW 10.4 mph 17.3 mph N/A   Clear